FENGYUN 1C DEB, 30932

Orbit data source: Space-Track

FENGYUN 1C DEB, 30932 is space debris in SSO originally from a launch on Mon, 10 May 1999 UTC launched from the Taiyaun Space Center, China (TSC). Fengyun 1C debris stems from the Chinese weather satellite Fengyun-1C, which was intentionally destroyed by a Chinese anti-satellite missile in 2007. This event dramatically increased the amount of space debris, with thousands of trackable fragments posing hazards to satellites and human spaceflight. The Fengyun 1C debris cloud has become a focal point in discussions about space sustainability and the need for international regulations to prevent the creation of new debris.

Loading next visibility...
Identifier
30932, 1999-025AZW
Orbit
SSO
Country
Flag of CNCN / PRC
Related business
Manufacturer
Unknown
Mission
Spacecraft
Bus & Motor
Unknown
Mass
Unknown
Launch date (UTC)
1999-05-10 (27 years ago)
Launch vehicle
Unknown
Launch site
Taiyaun Space Center, China (TSC)
Object type
Payload
Rocket body
Debris
Shape & HBR
Unknown shape, 0.1 m
Radar Cross Section
Small (<0.1 m²)

Expand to show TLE details & history
Last TLE update: 10 hours ago

TLE from 10 hours ago
0 FENGYUN 1C DEB
1 30932U 99025AZW 26169.50786065  .00003736  00000-0  14696-2 0  9990
2 30932  98.9126 111.1951 0058315 103.4967 257.2721 14.28920369990744
Epoch: 2026-06-18T12:11Z
TLE epoch observation values (Epoch: 2026-06-18T12:11:19.160Z)
Latitude
0.00005°
Longitude
21.61507°
Altitude
807.712 km
Speed
7.445 km/s
True Right ascension
07h 24m 46s
True Declination
0° 00' 00"
Sunlit
Object was in daylight at epoch
Visualization orbit readout
Latitude
Unknown
Longitude
Unknown
Altitude
Unknown
Speed
Unknown
Apparent Right ascension
Unknown
Apparent Declination
Unknown
Sunlit
N/A
Visualization observer readout
Local Sidereal Time
08:53:53
Azimuth
Unknown
Elevation
Unknown
Doppler factor
Unknown
Orbital elements
Apogee altitude
834.314 km
Perigee altitude
750.683 km
Semi-major axis
7,170.635 km
Eccentricity
0.00583
Inclination
98.9126°
RAAN
111.1951°
Arg. of periapsis
103.4967°
True anomaly
256.62134°
Mean anomaly
257.2721°
Eccentric anomaly
256.94661°
Mean motion
3.57443 °/min
Orbital period
100.72 mins
BSTAR
0.0014696
Loading maneuver chart data...
Computing Atmospheric mass density...
Loading historical data...
Loading historical data...
Loading historical data...
Loading historical data...
Loading historical data...
Loading historical data...
Loading historical data...

Documentation

Showing up to 5 results
|